Starlink 3672

operational
NORAD ID: 51974 Int'l Des: 2022-025 Owner: SPXS Country: US Constellation: starlink
LEOCIRCULARSTARLINK_TYPE

About Starlink 3672

Description loading...

Live Position

Loading 3D Globe...

Upcoming Passes

Altitude History

Altitude vs Time

uPlot chart will show altitude changes over time

Two-Line Element Set

1 51974U 22025U 26034.44817602 -.00000222 00000-0 40073-5 0 9990
2 51974 53.0552 184.6002 0001322 90.4515 269.6625 15.06392733215756
Epoch: Feb 3, 2026 • Age: 17 hours

Current Status

Altitude 547.1 km
Velocity 7.59 km/s
Sub-Earth Point 12.16°N, 166.79°E
Launch Date Mar 9, 2022
Age 3.9 years
Type internet

Technical Details

Classification Payload
Mass 297.00 kg
Dry Mass 275.00 kg
Total Mass 297.00 kg
Length 0.20 m
Diameter 2.80 m
Span 9.00 m
Shape Box + pan
Manufacturer SPXS
Bus Type Starlink
Phase Status In Orbit
Owner/State SPXS/US

Large Constellations

Loading constellations...